| time (UTC) | temp F | wind direction | speed MPH | gust MPH | rain 1hr in | rain 24hr in | rain mn in | humidity % | barometer mb |
| 20260502123038 | 37 | 347 | 2.0 | 9.0 | 0.00 | 0.00 | 0.00 | 79 | 1015.2 |
| 20260502121537 | 37 | 324 | 3.0 | 8.0 | 0.00 | 0.00 | 0.00 | 80 | 1015.4 |
| 20260502114539 | 36 | 318 | 1.0 | 6.0 | 0.00 | 0.00 | 0.00 | 82 | 1015.3 |
| 20260502113054 | 36 | 0 | 1.0 | 4.0 | 0.00 | 0.00 | 0.00 | 82 | 1015.1 |
| 20260502111543 | 35 | 0 | 0.0 | 2.0 | 0.00 | 0.00 | 0.00 | 81 | 1015.1 |
| 20260502110037 | 35 | 303 | 0.0 | 3.0 | 0.00 | 0.00 | 0.00 | 80 | 1014.9 |
| 20260502104549 | 35 | 0 | 0.0 | 2.0 | 0.00 | 0.00 | 0.00 | 79 | 1014.8 |
| 20260502103059 | 36 | 0 | 0.0 | 5.0 | 0.00 | 0.00 | 0.00 | 78 | 1014.9 |
| 20260502101547 | 36 | 0 | 1.0 | 4.0 | 0.00 | 0.00 | 0.00 | 77 | 1015.1 |
| 20260502090258 | 37 | 0 | 0.0 | 3.0 | 0.00 | 0.00 | 0.00 | 75 | 1015.2 |
| 20260502070255 | 40 | 278 | 2.0 | 5.0 | 0.00 | 0.00 | 0.00 | 68 | 1015.0 |
| 20260502064555 | 40 | 299 | 1.0 | 7.0 | 0.00 | 0.00 | 0.00 | 66 | 1015.2 |
| 20260502061620 | 40 | 0 | 3.0 | 8.0 | 0.00 | 0.00 | 0.00 | 70 | 1015.4 |
| 20260502060039 | 41 | 346 | 3.0 | 10.0 | 0.00 | 0.00 | 0.00 | 70 | 1015.6 |
| 20260502053246 | 41 | 321 | 3.0 | 11.0 | 0.00 | 0.00 | 0.00 | 73 | 1015.6 |
| 20260502051538 | 41 | 0 | 4.0 | 12.0 | 0.00 | 0.00 | 0.00 | 72 | 1015.6 |
| 20260502043502 | 43 | 323 | 8.0 | 14.0 | 0.00 | 0.00 | 0.00 | 76 | 1015.8 |
| 20260502041931 | 43 | 343 | 5.0 | 12.0 | 0.00 | 0.00 | 0.00 | 76 | 1015.7 |
| 20260502040511 | 44 | 297 | 6.0 | 10.0 | 0.00 | 0.00 | 0.00 | 76 | 1015.6 |
| 20260502034814 | 44 | 328 | 1.0 | 8.0 | 0.00 | 0.00 | 0.00 | 75 | 1015.7 |
| 20260502030314 | 44 | 287 | 4.0 | 10.0 | 0.00 | 0.00 | 0.00 | 73 | 1015.9 |
| 20260502023057 | 45 | 308 | 4.0 | 14.0 | 0.00 | 0.00 | 0.00 | 71 | 1015.3 |
| 20260502022047 | 45 | 268 | 6.0 | 16.0 | 0.00 | 0.00 | 0.00 | 73 | 1015.3 |
| 20260502020037 | 46 | 336 | 4.0 | 10.0 | 0.00 | 0.00 | 0.00 | 74 | 1015.2 |
| 20260502014536 | 46 | 296 | 6.0 | 11.0 | 0.00 | 0.00 | 0.00 | 75 | 1014.4 |
| 20260502013037 | 47 | 282 | 3.0 | 15.0 | 0.00 | 0.00 | 0.00 | 75 | 1014.4 |
| 20260502011729 | 47 | 319 | 7.0 | 16.0 | 0.00 | 0.00 | 0.00 | 75 | 1014.2 |
| 20260502002054 | 49 | 321 | 3.0 | 13.0 | 0.00 | 0.00 | 0.00 | 71 | 1013.3 |
| 20260501234950 | 51 | 360 | 5.0 | 14.0 | 0.00 | 0.00 | 0.00 | 65 | 1012.6 |
| 20260501233050 | 53 | 351 | 11.0 | 20.0 | 0.00 | 0.00 | 0.00 | 59 | 1012.4 |
| 20260501231546 | 56 | 308 | 8.0 | 13.0 | 0.00 | 0.00 | 0.00 | 46 | 1011.9 |
| 20260501230110 | 58 | 282 | 5.0 | 12.0 | 0.00 | 0.00 | 0.00 | 42 | 1011.8 |
| 20260501224548 | 59 | 256 | 6.0 | 19.0 | 0.00 | 0.00 | 0.00 | 41 | 1011.8 |
| 20260501223049 | 59 | 270 | 8.0 | 23.0 | 0.00 | 0.00 | 0.00 | 39 | 1011.7 |
| 20260501221537 | 60 | 283 | 5.0 | 16.0 | 0.00 | 0.00 | 0.00 | 41 | 1011.7 |
| 20260501220039 | 60 | 238 | 9.0 | 22.0 | 0.00 | 0.00 | 0.00 | 36 | 1011.7 |
| 20260501214535 | 61 | 251 | 14.0 | 25.0 | 0.00 | 0.00 | 0.00 | 34 | 1011.8 |
| 20260501213045 | 60 | 271 | 11.0 | 21.0 | 0.00 | 0.00 | 0.00 | 35 | 1011.7 |
| 20260501211550 | 61 | 258 | 11.0 | 19.0 | 0.00 | 0.00 | 0.00 | 34 | 1011.8 |
| 20260501210041 | 61 | 303 | 8.0 | 21.0 | 0.00 | 0.00 | 0.00 | 35 | 1011.9 |
| 20260501204541 | 60 | 236 | 9.0 | 21.0 | 0.00 | 0.00 | 0.00 | 33 | 1011.9 |
| 20260501203040 | 61 | 268 | 13.0 | 23.0 | 0.00 | 0.00 | 0.00 | 32 | 1012.0 |
| 20260501201541 | 61 | 289 | 13.0 | 23.0 | 0.00 | 0.00 | 0.00 | 34 | 1011.9 |
| 20260501200039 | 61 | 216 | 10.0 | 22.0 | 0.00 | 0.00 | 0.00 | 31 | 1012.0 |
| 20260501194537 | 61 | 259 | 12.0 | 25.0 | 0.00 | 0.00 | 0.00 | 32 | 1012.0 |
| 20260501193045 | 61 | 239 | 12.0 | 22.0 | 0.00 | 0.00 | 0.00 | 30 | 1012.2 |
| 20260501191541 | 61 | 231 | 12.0 | 20.0 | 0.00 | 0.00 | 0.00 | 30 | 1012.5 |
| 20260501190038 | 61 | 204 | 9.0 | 17.0 | 0.00 | 0.00 | 0.00 | 33 | 1012.5 |
| 20260501184538 | 61 | 227 | 11.0 | 22.0 | 0.00 | 0.00 | 0.00 | 32 | 1012.7 |
| 20260501183037 | 61 | 289 | 9.0 | 19.0 | 0.00 | 0.00 | 0.00 | 30 | 1012.5 |
| 20260501181536 | 61 | 267 | 9.0 | 19.0 | 0.00 | 0.00 | 0.00 | 29 | 1012.6 |
| 20260501180059 | 60 | 251 | 8.0 | 17.0 | 0.00 | 0.00 | 0.00 | 31 | 1012.8 |
| 20260501174538 | 60 | 226 | 9.0 | 22.0 | 0.00 | 0.00 | 0.00 | 29 | 1012.9 |
| 20260501173038 | 60 | 243 | 7.0 | 22.0 | 0.00 | 0.00 | 0.00 | 27 | 1013.0 |
| 20260501171544 | 59 | 215 | 9.0 | 17.0 | 0.00 | 0.00 | 0.00 | 24 | 1013.0 |
| 20260501170039 | 59 | 229 | 7.0 | 16.0 | 0.00 | 0.00 | 0.00 | 29 | 1013.1 |
| 20260501164539 | 58 | 262 | 5.0 | 14.0 | 0.00 | 0.00 | 0.00 | 31 | 1013.2 |
| 20260501163038 | 58 | 216 | 3.0 | 12.0 | 0.00 | 0.00 | 0.00 | 38 | 1013.3 |
| 20260501161537 | 56 | 222 | 2.0 | 11.0 | 0.00 | 0.00 | 0.00 | 33 | 1013.6 |
| 20260501160043 | 55 | 208 | 2.0 | 13.0 | 0.00 | 0.00 | 0.00 | 40 | 1013.8 |